Weather Roundup
Issued by NWS

Home | Current Version | Previous Version | Text Only | Print | Product List | Glossary On
Versions: 1 2 3 4 5 6 7 8 9 10 11 12 13 14 15 16 17 18 19 20 21 22 23 24 25 26 27 28 29 30 31 32 33 34 35 36 37 38 39 40 41 42 43 44 45 46 47 48 49 50
000
NZUS93 KARX 272310
HRRWXR

CURRENT HOURLY OBSERVATIONS ACROSS
MUCH OF THE UPPER MISSISSIPPI VALLEY
NATIONAL WEATHER SERVICE LA CROSSE WI
500 PM CST SAT FEB 27 2021


...SOUTHEAST MINNESOTA...


CITY           SKY/WX    TMP DP  RH WIND       PRES   REMARKS
ROCHESTER      PTCLDY    39  27  62 SE7       29.93F WCI  34
ROCHESTER/MAYO MOCLDY    44  27  50 E7        29.93F
WINONA         MOCLDY    46  32  57 CALM      29.96F
AUSTIN         PTCLDY    37  30  75 E5        29.92F WCI  34
ALBERT LEA     PTCLDY    39  30  70 SE8       29.90F WCI  34
DODGE CENTER   MOCLDY    37  28  70 SE8       29.92F WCI  31
PRESTON        PTCLDY    42  29  58 SE3       29.94F
OWATONNA       MOCLDY    39  30  70 E9        29.91F WCI  33
FARIBAULT        N/A     39  30  70 E6        29.92F WCI  35
$$

...ELSEWHERE IN MINNESOTA...


CITY           SKY/WX    TMP DP  RH WIND       PRES   REMARKS
MINNEAPOLIS    CLOUDY    43  28  55 SE8       29.93S
INTNL FALLS    CLEAR     25  12  58 NE3       29.95S
DULUTH         PTCLDY    37  24  59 SE9       29.92R WCI  30
RED WING       CLOUDY    41  28  60 SE3       29.94F
REDWOOD FALLS  CLOUDY    41  34  76 NE6       29.87F
MANKATO        CLOUDY    37  33  85 SE7       29.91S WCI  32
WORTHINGTON    CLOUDY    39  33  79 E10       29.85S WCI  32
FAIRMONT       PTSUNNY   38  31  76 E7        29.88F WCI  33
$$

...SOUTHWEST WISCONSIN...


CITY           SKY/WX    TMP DP  RH WIND       PRES   REMARKS
LA CROSSE      PTCLDY    46  30  53 S7        29.95F
PRAIRIE DU CHI CLEAR     46  30  53 SE6       29.98F
BOSCOBEL       CLEAR     49  30  48 CALM      29.99S
LONE ROCK      CLEAR     42  31  64 S9        30.00R
PLATTEVILLE    CLEAR     40  34  80 E7        29.99F
FORT MC COY      N/A     48  29  47 CALM      29.97F
CAMP DOUGLAS   PTCLDY    48  28  45 CALM      29.96F
MAUSTON-NEW LI PTCLDY    49  28  44 CALM      29.97F
VIROQUA        CLEAR     44  32  62 SE3       29.96F
WIS DELLS      PTCLDY    43  29  59 S5        29.99R
$$

...ELSEWHERE IN WISCONSIN...


CITY           SKY/WX    TMP DP  RH WIND       PRES   REMARKS
MILWAUKEE      MOCLDY    45  31  58 SE6       30.05R
MADISON        PTCLDY    43  30  60 S9        30.01S
GREEN BAY      CLEAR     43  30  60 S9        30.01R
EAU CLAIRE     MOCLDY    44  26  49 CALM      29.95S
BLACK RVR FLS  MOCLDY    49  23  36 CALM      29.96F
MEDFORD        MOCLDY    40  26  58 CALM      29.95R
WAUSAU         PTCLDY    45  22  40 SW6       29.94R
WIS RAPIDS     PTCLDY    47  25  42 S6        29.98R
MARSHFIELD     PTCLDY    45  22  40 W6        29.96R
RICE LAKE      MOCLDY    41  29  64 CALM      29.96S
$$

...NORTHEAST IOWA...


CITY           SKY/WX    TMP DP  RH WIND       PRES   REMARKS
WATERLOO       CLEAR     39  31  72 E10       29.93F WCI  32
DUBUQUE        PTCLDY    39  31  72 SE5       29.98F
DECORAH        CLEAR     41  32  70 SE5       29.94F
MASON CITY     CLEAR     39  32  76 E10       29.90F WCI  32
CHARLES CITY   CLOUDY    39  32  75 E10       29.92F WCI  32
OELWEIN        CLEAR     37  30  75 SE14      29.94F WCI  29
$$

...ELSEWHERE IN IOWA...


CITY           SKY/WX    TMP DP  RH WIND       PRES   REMARKS
DES MOINES     PTSUNNY   48  36  63 E10G22    29.82F
IOWA CITY      PTCLDY    45  33  63 E6        29.97F
FORT DODGE     CLOUDY    37  33  85 E14       29.84F WCI  28
MARSHALLTOWN   NOT AVBL
CEDAR RAPIDS   PTCLDY    36  31  82 E10       29.95F WCI  28
$$

...NORTHERN ILLINOIS...


CITY           SKY/WX    TMP DP  RH WIND       PRES   REMARKS
CHICAGO-OHARE  PTCLDY    50  35  56 S7        30.04S
CHICAGO-MIDWAY PTCLDY    49  37  63 S8        30.06R
MOLINE         CLEAR     47  36  65 MISG      29.98F
ROCKFORD       MOCLDY    43  32  65 SE7       30.05S
PEORIA         CLEAR     55  37  50 SE9       30.00F
$$

NOTE: "FAIR" INDICATES FEW OR NO CLOUDS BELOW 12,000 FEET WITH NO
SIGNIFICANT WEATHER AND/OR OBSTRUCTIONS TO VISIBILITY. WIND
SPEEDS ARE IN MILES-PER-HOUR.




USA.gov is the U.S. government's official web portal to all federal, state and local government web resources and services.